Location: Agua Amarilla
(10.0342°N, 66.8490°W)
Time: 16:46:43
(UTC+00:00)

Cosmos 1842 - Pass Details

Date: 26 June 2022
Orbit: 517 x 529 km, 82.5° (Epoch: 08 August)

Event Time Altitude Azimuth Distance (km) Brightness Sun altitude
Rises 23:17:49 0° 189° (S) 2,631 6.6 -6.7°
Reaches altitude 10° 23:19:58 10° 192° (SSW) 1,742 5.7 -7.2°
Maximum altitude 23:23:45 65° 274° (W) 571 3.7 -8.0°
Drops below altitude 10° 23:27:32 10° 356° (N) 1,737 6.3 -8.9°
Sets 23:29:40 0° 360° (N) 2,623 7.2 -9.3°
